User: anonymous   Login
Location: Unspecified
(0.0000°N, 0.0000°E)
Time: 07:09:30
(UTC+00:00)
Language:

SPROUT - Orbit

View from above orbital plane
View from above orbital plane
View from above satellite
View from above satellite

Ground track
Ground track

The orbit data is extracted from the following two-line orbital elements,

1 39770U 14029E   17178.86842258 +.00000718 +00000-0 +87843-4 0  9999
2 39770 097.8735 278.1331 0007776 297.9946 062.0474 14.86247767167723
Epoch (UTC): 27 June 2017 20:50:31
Eccentricity: 0.0007776
inclination: 97.8735°
perigee height: 604 km
apogee height: 615 km
right ascension of ascending node: 278.1331°
argument of perigee: 297.9946°
revolutions per day: 14.86247767
mean anomaly at epoch: 62.0474°
orbit number at epoch: 16772

The dashed part of the orbit path shows where the satellite is in the earth's shadow,  

DLR